Location: Mascot Post Office (historical)
(40.2645°N, 99.5462°W)
Time: 17:26:17
(UTC+00:00)

SL-8 Rocket - Pass Details

Date: 14 July 2020
Orbit: 957 x 990 km, 82.9° (Epoch: 05 August)

Event Time Altitude Azimuth Distance (km) Brightness Sun altitude
Exits shadow 04:32:33 37° 125° (SE) 1,461 4.4 -21.0°
Maximum altitude 04:34:06 43° 90° (E) 1,314 4.4 -21.1°
Drops below altitude 10° 04:39:52 10° 21° (NNE) 2,696 6.8 -21.7°
Sets 04:42:28 0° 15° (NNE) 3,647 7.7 -22.0°
